This demonstration page uses our WeatherBlox Daily Observations layout. Learn more.

36.17497, -115.13722

Hourly Observations for January 10, 2018

Temp ( °F °C ) Dew Point ( °F °C ) Humidity (%) Winds ( mph kmh ) Pressure ( in mb ) Visibility ( mi km ) Precip ( " mm )
12:53 am 00:53 Mostly Cloudy with Mist and Fog 41 5 41 5 100 100 Calm 29.87 1011 1 1.60934 0.01 0.254
1:01 am 01:01 Partly Cloudy with Mist and Fog 42 5.6 42 5.6 100 100 Calm 29.83 1010 1.5 2.41401 0 0
1:16 am 01:16 Clear with Mist and Fog 42 5.6 42 5.6 100 100 Calm 29.83 1010 3 4.82802 0 0
1:53 am 01:53 Clear 40 4.4 40 4.4 100 100 NNW 5 7 29.89 1012 9 14.48406 0 0
2:53 am 02:53 Clear with Mist and Fog 40 4.4 40 4.4 100 100 NNW 5 7 29.89 1012 6 9.65604 0 0
3:53 am 03:53 Partly Cloudy with Mist and Fog 40 4.4 40 4.4 100 100 NW 7 11 29.9 1013 6 9.65604 0 0
4:53 am 04:53 Mostly Clear 41 5 40 4.4 96 96 W 6 9 29.9 1013 9 14.48406 0 0
5:53 am 05:53 Mostly Clear 43 6.1 41 5 93 93 W 3 6 29.92 1013 10 16.0934 0 0
6:53 am 06:53 Partly Cloudy 45 7.2 41 5 86 86 W 10 17 29.92 1013 10 16.0934 0 0
7:53 am 07:53 Sunny 44 6.7 42 5.6 93 93 NE 6 9 29.95 1014 9 14.48406 0 0
8:53 am 08:53 Sunny 46 7.8 44 6.7 93 93 ESE 5 7 29.98 1015 10 16.0934 0 0
9:53 am 09:53 Sunny 49 9.4 44 6.7 83 83 Calm 29.99 1016 10 16.0934 0 0
10:53 am 10:53 Sunny 57 13.9 43 6.1 60 60 NNW 15 24 29.97 1015 10 16.0934 0 0
11:53 am 11:53 Sunny 58 14.4 44 6.7 60 60 WNW 8 13 29.95 1014 10 16.0934 0 0
12:53 pm 12:53 Sunny 59 15 45 7.2 60 60 VRB 5 7 29.94 1014 10 16.0934 0 0
1:53 pm 13:53 Sunny 61 16.1 45 7.2 56 56 NE 3 6 29.93 1014 10 16.0934 0 0
2:53 pm 14:53 Sunny 63 17.2 42 5.6 47 47 undefined N/A 29.95 1014 10 16.0934 0 0
3:53 pm 15:53 Sunny 62 16.7 43 6.1 50 50 WNW 13 20 29.97 1015 10 16.0934 0 0
4:53 pm 16:53 Clear 60 15.6 42 5.6 52 52 NW 5 7 29.99 1016 10 16.0934 0 0
5:53 pm 17:53 Clear 59 15 42 5.6 54 54 VRB 3 6 30.02 1017 10 16.0934 0 0
6:53 pm 18:53 Clear 57 13.9 43 6.1 60 60 NNW 7 11 30.04 1017 10 16.0934 0 0
7:53 pm 19:53 Clear 55 12.8 44 6.7 67 67 E 9 15 30.06 1018 10 16.0934 0 0
8:53 pm 20:53 Clear 51 10.6 46 7.8 83 83 SE 5 7 30.09 1019 10 16.0934 0 0
9:53 pm 21:53 Clear 50 10 46 7.8 86 86 SE 3 6 30.13 1020 10 16.0934 0 0
10:53 pm 22:53 Clear 50 10 46 7.8 86 86 Calm 30.14 1021 10 16.0934 0 0
11:53 pm 23:53 Clear 48 8.9 45 7.2 89 89 Calm 30.16 1021 10 16.0934 0 0

Powered by AerisWeather